Howell, MI

7:32 AM EDT on May 30, 2017 (GMT -0400)
Livingston County

Weather History for KOZW - September, 2011

Change the Weather History Date:

Tuesday, September 13, 2011

  Actual Average Record
Temperature  
Mean Temperature 72 °F -  
Max Temperature 77 °F 75 °F 89 °F (1998)
Min Temperature 66 °F 52 °F 41 °F (2014)
Cooling Degree Days 6    
Growing Degree Days 22 (Base 50)    
Moisture  
Dew Point 59 °F    
Average Humidity 67    
Maximum Humidity 78    
Minimum Humidity 50    
Precipitation  
Precipitation 0.00 in - - ()
Sea Level Pressure  
Sea Level Pressure 29.81 in    
Wind  
Wind Speed 8 mph (WSW)    
Max Wind Speed 13 mph    
Max Gust Speed 21 mph    
Visibility 10 miles    
Events      
Averages and records for this station are not official NWS values.
T = Trace of Precipitation, MM = Missing Value Source: NWS Daily Summary

Daily Weather History Graph

Daily Weather History Graph

Search for Another Location

Airport or City:

Trip Planner

Search our weather history database for the weather conditions in past years. The results will help you decide how hot, cold, wet, or windy it might be!

Date:

Astronomy

Sep. 13, 2011 Rise Set
Actual Time 7:13 AM EDT 7:49 PM EDT
Civil Twilight 6:44 AM EDT 8:18 PM EDT
Nautical Twilight 6:11 AM EDT 8:51 PM EDT
Astronomical Twilight 5:36 AM EDT 9:26 PM EDT
Moon 8:01 PM EDT (9/13) 8:29 AM EDT (9/13)
Length of Visible Light 13h 33m
Length of Day
12h 36m
Full, 99% of the Moon is Illuminated
Sep 13
Full
Sep 20
Last Quarter
Sep 27
New
Oct 3
First Quarter
Oct 11
Full

Hourly Weather History & Observations

Time (EDT) Temp. Dew Point Humidity Pressure Visibility Wind Dir Wind Speed Gust Speed Precip Events Conditions
12:14 AM 68.0 °F 60.8 °F 78% 29.85 in 10.0 mi SSW 5.8 mph - N/A   Clear
12:34 AM 68.0 °F 59.0 °F 73% 29.85 in 10.0 mi SSW 8.1 mph - N/A   Clear
1:14 AM 68.0 °F 59.0 °F 73% 29.84 in 10.0 mi SSW 4.6 mph - N/A   Clear
1:34 AM 68.0 °F 59.0 °F 73% 29.84 in 10.0 mi SSW 4.6 mph - N/A   Clear
1:54 AM 68.0 °F 59.0 °F 73% 29.83 in 10.0 mi SSW 4.6 mph - N/A   Clear
2:14 AM 68.0 °F 59.0 °F 73% 29.82 in 10.0 mi SSW 6.9 mph - N/A   Clear
2:35 AM 68.0 °F 59.0 °F 73% 29.81 in 10.0 mi SSW 8.1 mph - N/A   Mostly Cloudy
2:54 AM 68.0 °F 59.0 °F 73% 29.80 in 10.0 mi SSW 5.8 mph - N/A   Scattered Clouds
3:14 AM 68.0 °F 59.0 °F 73% 29.80 in 10.0 mi SSW 8.1 mph - N/A   Mostly Cloudy
3:35 AM 68.0 °F 59.0 °F 73% 29.79 in 10.0 mi SSW 6.9 mph - N/A   Overcast
3:54 AM 68.0 °F 59.0 °F 73% 29.78 in 10.0 mi SSW 9.2 mph - N/A   Overcast
4:14 AM 68.0 °F 57.2 °F 68% 29.78 in 10.0 mi SSW 8.1 mph - N/A   Mostly Cloudy
4:34 AM 69.8 °F 57.2 °F 64% 29.77 in 10.0 mi SW 9.2 mph - N/A   Scattered Clouds
4:54 AM 68.0 °F 57.2 °F 68% 29.77 in 10.0 mi SW 5.8 mph - N/A   Clear
5:14 AM 68.0 °F 57.2 °F 68% 29.77 in 10.0 mi SW 9.2 mph - N/A   Clear
5:34 AM 69.8 °F 55.4 °F 60% 29.77 in 10.0 mi SW 11.5 mph 17.3 mph N/A   Clear
5:54 AM 69.8 °F 55.4 °F 60% 29.77 in 10.0 mi SW 8.1 mph - N/A   Clear
6:13 AM 68.0 °F 55.4 °F 64% 29.77 in 10.0 mi SW 9.2 mph 16.1 mph N/A   Clear
6:34 AM 68.0 °F 55.4 °F 64% 29.77 in 10.0 mi SW 9.2 mph - N/A   Clear
6:54 AM 68.0 °F 55.4 °F 64% 29.78 in 10.0 mi SW 9.2 mph - N/A   Clear
7:14 AM 68.0 °F 57.2 °F 68% 29.78 in 10.0 mi SW 8.1 mph - N/A   Clear
7:34 AM 68.0 °F 57.2 °F 68% 29.77 in 10.0 mi SW 9.2 mph - N/A   Clear
7:54 AM 68.0 °F 57.2 °F 68% 29.78 in 10.0 mi SW 5.8 mph - N/A   Clear
8:15 AM 68.0 °F 59.0 °F 73% 29.78 in 10.0 mi SW 8.1 mph - N/A   Clear
8:34 AM 68.0 °F 59.0 °F 73% 29.78 in 10.0 mi SW 9.2 mph - N/A   Clear
8:54 AM 68.0 °F 59.0 °F 73% 29.78 in 10.0 mi SW 10.4 mph 17.3 mph N/A   Clear
9:34 AM 69.8 °F 59.0 °F 68% 29.78 in 10.0 mi WSW 11.5 mph - N/A   Clear
9:54 AM 71.6 °F 60.8 °F 69% 29.78 in 10.0 mi WSW 12.7 mph 16.1 mph N/A   Clear
10:14 AM 71.6 °F 60.8 °F 69% 29.79 in 10.0 mi WSW 9.2 mph 20.7 mph N/A   Clear
10:54 AM 73.4 °F 60.8 °F 65% 29.80 in 10.0 mi West 12.7 mph - N/A   Scattered Clouds
11:14 AM 73.4 °F 60.8 °F 65% 29.80 in 10.0 mi West 10.4 mph - N/A   Scattered Clouds
11:34 AM 75.2 °F 62.6 °F 65% 29.80 in 10.0 mi WSW 10.4 mph - N/A   Scattered Clouds
11:55 AM 73.4 °F 62.6 °F 69% 29.80 in 10.0 mi West 11.5 mph - N/A   Mostly Cloudy
12:14 PM 73.4 °F 62.6 °F 69% 29.81 in 10.0 mi West 9.2 mph - N/A   Overcast
12:34 PM 75.2 °F 62.6 °F 65% 29.81 in 10.0 mi WSW 11.5 mph - N/A   Overcast
12:54 PM 73.4 °F 62.6 °F 69% 29.81 in 10.0 mi West 11.5 mph - N/A   Overcast
1:14 PM 75.2 °F 62.6 °F 65% 29.81 in 10.0 mi NW 9.2 mph - N/A   Mostly Cloudy
1:34 PM 75.2 °F 62.6 °F 65% 29.82 in 10.0 mi WNW 11.5 mph - N/A   Mostly Cloudy
1:54 PM 73.4 °F 62.6 °F 69% 29.82 in 10.0 mi NNW 10.4 mph - N/A   Mostly Cloudy
2:14 PM 73.4 °F 60.8 °F 65% 29.82 in 10.0 mi North 9.2 mph - N/A   Mostly Cloudy
2:54 PM 73.4 °F 59.0 °F 61% 29.82 in 7.0 mi NNW 6.9 mph - N/A   Clear
3:14 PM 77.0 °F 59.0 °F 54% 29.82 in 10.0 mi West 6.9 mph - N/A   Scattered Clouds
3:34 PM 73.4 °F 59.0 °F 61% 29.83 in 10.0 mi NW 6.9 mph - N/A   Mostly Cloudy
3:54 PM 77.0 °F 59.0 °F 54% 29.83 in 10.0 mi WNW 11.5 mph 17.3 mph N/A   Scattered Clouds
4:14 PM 75.2 °F 55.4 °F 50% 29.83 in 10.0 mi NNW 11.5 mph - N/A   Scattered Clouds
4:34 PM 73.4 °F 59.0 °F 61% 29.83 in 10.0 mi North 4.6 mph 16.1 mph N/A   Mostly Cloudy
4:54 PM 73.4 °F 59.0 °F 61% 29.84 in 10.0 mi NNW 10.4 mph - N/A   Scattered Clouds
5:14 PM 71.6 °F 59.0 °F 64% 29.85 in 10.0 mi NW 4.6 mph - N/A   Mostly Cloudy
5:34 PM 71.6 °F 57.2 °F 60% 29.85 in 10.0 mi North 5.8 mph - N/A   Mostly Cloudy
5:54 PM 69.8 °F 59.0 °F 68% 29.86 in 10.0 mi North 4.6 mph - N/A   Overcast
6:13 PM 69.8 °F 57.2 °F 64% 29.87 in 10.0 mi North 9.2 mph - N/A   Overcast
6:34 PM 68.0 °F 55.4 °F 64% 29.88 in 10.0 mi North 5.8 mph - N/A   Overcast
6:54 PM 68.0 °F 55.4 °F 64% 29.89 in 7.0 mi North 6.9 mph - N/A   Overcast
7:15 PM 66.2 °F 55.4 °F 68% 29.90 in 7.0 mi North 4.6 mph - N/A   Overcast
7:34 PM 66.2 °F 55.4 °F 68% 29.90 in 7.0 mi NNW 4.6 mph - N/A   Overcast
7:54 PM 64.4 °F 55.4 °F 73% 29.91 in 7.0 mi NNW 3.5 mph - N/A   Mostly Cloudy
8:34 PM 62.6 °F 55.4 °F 77% 29.91 in 7.0 mi NNW 3.5 mph - N/A   Mostly Cloudy
8:54 PM 62.6 °F 55.4 °F 77% 29.92 in 7.0 mi NW 3.5 mph - N/A   Overcast
9:14 PM 62.6 °F 55.4 °F 77% 29.93 in 7.0 mi NW 3.5 mph - N/A   Overcast
9:34 PM 62.6 °F 53.6 °F 72% 29.94 in 10.0 mi NNW 5.8 mph - N/A   Overcast
9:54 PM 62.6 °F 51.8 °F 68% 29.95 in 10.0 mi NNW 4.6 mph - N/A   Overcast
10:14 PM 60.8 °F 51.8 °F 72% 29.95 in 10.0 mi NNW 4.6 mph - N/A   Mostly Cloudy
10:34 PM 59.0 °F 50.0 °F 72% 29.95 in 10.0 mi NW 6.9 mph - N/A   Scattered Clouds
10:54 PM 59.0 °F 50.0 °F 72% 29.96 in 10.0 mi NNW 8.1 mph - N/A   Mostly Cloudy
11:14 PM 59.0 °F 50.0 °F 72% 29.96 in 10.0 mi NNW 4.6 mph - N/A   Scattered Clouds